period_start,C,m1,H,J0,J1,J2,J3,J4,J5,JA,JB,JC,JD,JJ,JK,JN,#
2017-10-13 00:01:32,0.00,0.28,0.00,19.00,22.50,25.70,14.21,46.73,1021.50,2051.02,3396.98,3056.00,3487.00,599.77,606.92,19.19,0000 0000 0000 0000 000000
2017-10-13 00:06:34,0.00,0.28,0.00,19.04,22.52,25.70,14.21,46.72,1021.50,2051.01,3396.64,3055.97,3486.97,599.94,607.05,19.24,0000 0000 0000 0000 000000
2017-10-13 00:11:35,0.02,0.28,0.00,18.97,22.52,25.70,14.22,46.82,1021.51,2051.01,3396.08,3055.83,3486.71,600.28,607.50,19.29,0000 0000 0000 0000 000000
2017-10-13 00:16:36,0.02,0.28,0.00,19.05,22.53,25.74,14.21,46.63,1021.50,2051.00,3396.00,3055.26,3486.15,599.95,606.87,19.34,0000 0000 0000 0000 000000
2017-10-13 00:21:37,0.00,0.28,0.00,19.01,22.54,25.74,14.20,46.73,1021.50,2051.00,3395.98,3055.02,3486.00,600.37,607.40,19.39,0000 0000 0000 0000 000000
2017-10-13 00:26:38,0.01,0.28,0.00,19.07,22.55,25.76,14.20,46.70,1021.50,2051.00,3395.40,3055.00,3485.98,600.01,606.93,19.44,0000 0000 0000 0000 000000
2017-10-13 00:31:40,0.00,0.28,0.00,19.05,22.57,25.74,14.20,46.75,1021.50,2051.00,3395.03,3054.97,3485.88,599.90,607.08,19.49,0000 0000 0000 0000 000000
2017-10-13 00:36:41,0.02,0.28,0.00,19.07,22.57,25.74,14.29,46.72,1021.50,2051.00,3395.00,3054.58,3485.13,599.59,606.67,19.54,0000 0000 0000 0000 000000
2017-10-13 00:41:43,0.01,0.28,0.00,19.09,22.59,25.72,14.21,46.80,1021.50,2051.00,3394.94,3054.08,3485.00,600.47,607.43,19.59,0000 0000 0000 0000 000000
2017-10-13 00:46:44,0.01,0.28,0.00,19.12,22.59,25.75,14.24,46.78,1021.51,2051.00,3394.32,3054.01,3484.98,599.80,606.62,19.64,0000 0000 0000 0000 000000
2017-10-13 00:51:45,0.00,0.28,0.00,19.11,22.61,25.77,14.21,46.82,1021.51,2051.00,3394.02,3054.00,3484.86,599.84,606.76,19.69,0000 0000 0000 0000 000000
2017-10-13 00:56:46,0.01,0.28,0.00,19.15,22.62,25.75,14.17,46.75,1021.56,2050.99,3393.99,3053.97,3484.27,599.74,606.56,19.74,0000 0000 0000 0000 000000
2017-10-13 01:01:48,0.02,0.28,0.00,19.18,22.63,25.76,14.24,46.69,1021.58,2050.97,3393.64,3053.57,3484.00,600.24,607.01,19.79,0000 0000 0000 0000 000000
2017-10-13 01:06:49,0.01,0.29,0.00,19.19,22.64,25.78,14.11,46.76,1021.62,2050.98,3393.05,3053.06,3483.99,599.78,606.57,19.84,0000 0000 0000 0000 000000
2017-10-13 01:11:50,0.01,0.29,0.00,19.20,22.66,25.77,14.19,46.76,1021.57,2050.96,3392.99,3053.00,3483.63,600.30,606.99,19.89,0000 0000 0000 0000 000000
2017-10-13 01:16:52,0.00,0.29,0.00,19.21,22.67,25.80,14.23,46.76,1021.56,2050.95,3392.89,3052.98,3483.06,600.02,606.57,19.94,0000 0000 0000 0000 000000
2017-10-13 01:21:52,0.01,0.29,0.00,19.25,22.68,25.78,14.15,46.73,1021.53,2050.95,3392.39,3052.97,3483.01,600.00,606.60,19.99,0000 0000 0000 0000 000000
2017-10-13 01:26:54,0.00,0.29,0.00,19.23,22.69,25.81,14.16,46.80,1021.56,2050.79,3392.02,3052.34,3482.97,599.70,606.31,20.04,0000 0000 0000 0000 000000
2017-10-13 01:31:55,0.01,0.29,0.00,19.25,22.71,25.87,14.14,46.75,1021.55,2050.64,3391.90,3052.01,3482.62,600.05,606.62,20.09,0000 0000 0000 0000 000000
2017-10-13 01:36:57,-0.02,0.29,0.00,19.25,22.72,25.89,14.16,46.69,1021.58,2050.28,3391.15,3052.00,3482.03,599.84,606.59,20.14,0000 0000 0000 0000 000000
2017-10-13 01:41:58,0.01,0.29,0.00,19.30,22.74,25.90,14.17,46.84,1021.59,2050.18,3391.00,3051.93,3481.99,600.25,606.85,20.19,0000 0000 0000 0000 000000
2017-10-13 01:47:00,0.01,0.29,0.00,19.28,22.75,25.86,14.16,46.77,1021.67,2050.09,3390.99,3051.36,3481.86,599.96,606.76,20.24,0000 0000 0000 0000 000000
2017-10-13 01:52:01,0.02,0.29,0.00,19.32,22.77,25.88,14.15,46.83,1021.68,2050.05,3390.61,3051.02,3481.14,599.57,606.11,20.29,0000 0000 0000 0000 000000
2017-10-13 01:57:02,0.00,0.29,0.00,19.27,22.77,25.93,14.15,46.79,1021.68,2050.06,3390.03,3051.00,3481.00,600.04,606.68,20.34,0000 0000 0000 0000 000000
2017-10-13 02:02:03,-0.00,0.29,0.00,19.32,22.79,25.96,14.23,46.88,1021.79,2050.05,3390.00,3050.98,3480.99,599.95,606.50,20.39,0000 0000 0000 0000 000000
2017-10-13 02:07:04,0.04,0.29,0.00,19.30,22.79,25.94,14.23,46.79,1021.84,2050.01,3389.58,3050.53,3480.52,600.14,606.84,20.44,0000 0000 0000 0000 000000
2017-10-13 02:12:06,0.01,0.29,0.00,19.36,22.81,25.99,14.15,46.82,1021.86,2050.00,3389.01,3050.04,3480.04,599.90,606.59,20.49,0000 0000 0000 0000 000000
2017-10-13 02:17:07,0.00,0.29,0.00,19.34,22.82,25.97,14.15,46.65,1021.81,2050.00,3388.88,3049.99,3479.97,599.72,606.41,20.54,0000 0000 0000 0000 000000
2017-10-13 02:22:08,0.02,0.29,0.00,19.39,22.83,26.00,14.22,46.69,1021.85,2050.00,3388.14,3049.82,3479.46,599.89,606.39,20.59,0000 0000 0000 0000 000000
2017-10-13 02:27:10,0.02,0.29,0.00,19.40,22.84,26.01,14.28,46.68,1021.94,2050.00,3388.00,3049.21,3479.03,599.96,606.47,20.64,0000 0000 0000 0000 000000
2017-10-13 02:32:11,0.00,0.29,0.00,19.41,22.86,26.00,14.19,46.68,1021.98,2050.00,3387.90,3049.01,3479.00,599.64,606.09,20.69,0000 0000 0000 0000 000000
2017-10-13 02:37:12,0.02,0.30,0.00,19.42,22.87,25.95,14.16,46.63,1021.99,2049.98,3387.15,3048.99,3478.59,599.93,606.44,20.74,0000 0000 0000 0000 000000
2017-10-13 02:42:14,0.01,0.30,0.00,19.40,22.88,26.02,14.19,46.71,1021.99,2049.97,3387.00,3048.72,3478.04,599.95,606.47,20.79,0000 0000 0000 0000 000000
2017-10-13 02:47:15,0.01,0.30,0.00,19.44,22.89,26.08,14.10,46.67,1021.98,2049.96,3386.58,3048.07,3477.98,599.83,606.23,20.84,0000 0000 0000 0000 000000
2017-10-13 02:52:17,0.01,0.30,0.00,19.44,22.91,26.04,14.19,46.63,1021.99,2049.95,3386.02,3048.00,3477.71,599.69,606.10,20.89,0000 0000 0000 0000 000000
2017-10-13 02:57:18,0.01,0.30,0.00,19.47,22.92,26.09,14.18,46.64,1021.99,2049.95,3386.00,3047.99,3477.10,599.94,606.45,20.94,0000 0000 0000 0000 000000
2017-10-13 03:02:20,0.01,0.30,0.00,19.43,22.93,26.11,14.17,46.75,1021.99,2049.80,3385.39,3047.67,3477.00,599.49,605.92,20.99,0000 0000 0000 0000 000000
2017-10-13 03:07:21,-0.01,0.30,0.00,19.47,22.94,26.17,14.21,46.75,1022.00,2049.66,3385.01,3047.10,3476.94,600.39,606.92,21.04,0000 0000 0000 0000 000000
2017-10-13 03:12:23,0.00,0.30,0.00,19.47,22.96,26.15,14.20,46.82,1022.00,2049.44,3384.97,3047.00,3476.33,599.86,606.37,21.09,0000 0000 0000 0000 000000
2017-10-13 03:17:24,0.00,0.30,0.00,19.52,22.97,26.12,14.12,46.80,1022.01,2049.27,3384.27,3046.98,3476.01,599.81,606.13,21.14,0000 0000 0000 0000 000000
2017-10-13 03:22:25,0.01,0.30,0.00,19.48,22.99,26.16,14.19,46.81,1022.04,2049.16,3384.01,3046.61,3475.97,599.89,606.31,21.19,0000 0000 0000 0000 000000
2017-10-13 03:27:26,0.02,0.30,0.00,19.52,22.99,26.16,14.20,46.71,1022.08,2049.09,3383.68,3046.06,3475.34,600.21,606.52,21.24,0000 0000 0000 0000 000000
2017-10-13 03:32:27,0.01,0.30,0.00,19.49,23.02,26.20,14.20,46.77,1022.04,2049.03,3383.00,3045.89,3474.96,599.60,606.00,21.29,0000 0000 0000 0000 000000
2017-10-13 03:37:28,0.05,0.30,0.00,19.55,23.02,26.24,14.25,46.84,1022.08,2049.01,3382.27,3045.09,3474.16,600.20,606.51,21.34,0000 0000 0000 0000 000000
2017-10-13 03:42:29,0.00,0.30,0.00,19.54,23.03,26.18,14.16,46.77,1022.23,2049.00,3381.96,3045.00,3473.98,599.56,605.97,21.39,0000 0000 0000 0000 000000
2017-10-13 03:47:30,0.04,0.31,0.00,19.56,23.04,26.22,14.25,46.83,1022.44,2049.00,3381.16,3044.55,3473.31,599.89,606.46,21.44,0000 0000 0000 0000 000000
2017-10-13 03:52:32,0.00,0.31,0.00,19.55,23.06,26.21,14.26,46.82,1022.45,2049.00,3381.00,3044.04,3473.01,600.70,607.32,21.49,0000 0000 0000 0000 000000
2017-10-13 03:57:33,0.01,0.31,0.00,19.58,23.07,26.25,14.16,46.88,1022.47,2048.99,3380.68,3044.00,3472.98,599.50,605.87,21.54,0000 0000 0000 0000 000000
2017-10-13 04:02:34,0.01,0.31,0.00,19.61,23.07,26.29,14.19,46.83,1022.47,2048.99,3380.06,3043.99,3472.71,599.87,606.21,21.59,0000 0000 0000 0000 000000
2017-10-13 04:07:35,0.02,0.31,0.00,19.62,23.09,26.26,14.19,46.83,1022.48,2048.98,3379.97,3043.51,3472.07,600.05,606.44,21.64,0000 0000 0000 0000 000000
2017-10-13 04:12:37,0.01,0.31,0.00,19.66,23.09,26.26,14.16,46.86,1022.48,2048.99,3379.54,3043.05,3472.00,599.28,605.61,21.69,0000 0000 0000 0000 000000
2017-10-13 04:17:38,0.01,0.31,0.00,19.61,23.11,26.23,14.19,46.84,1022.48,2048.98,3379.04,3043.00,3471.88,600.08,606.34,21.74,0000 0000 0000 0000 000000
2017-10-13 04:22:39,0.01,0.31,0.00,19.65,23.12,26.29,14.26,46.91,1022.49,2048.97,3378.97,3042.98,3471.20,599.98,606.42,21.79,0000 0000 0000 0000 000000
2017-10-13 04:27:40,0.01,0.31,0.00,19.62,23.12,26.32,14.23,46.89,1022.50,2048.96,3378.71,3042.85,3471.02,600.27,606.77,21.84,0000 0000 0000 0000 000000
2017-10-13 04:32:42,0.03,0.31,0.00,19.67,23.14,26.34,14.23,46.74,1022.51,2048.93,3378.08,3042.20,3470.98,599.98,606.26,21.89,0000 0000 0000 0000 000000
2017-10-13 04:37:43,0.01,0.31,0.00,19.67,23.14,26.37,14.13,46.88,1022.53,2048.93,3377.99,3042.01,3470.66,599.76,606.07,21.95,0000 0000 0000 0000 000000
2017-10-13 04:42:44,0.00,0.31,0.00,19.67,23.15,26.36,14.18,46.85,1022.53,2048.81,3377.46,3041.98,3470.05,600.25,606.57,22.00,0000 0000 0000 0000 000000
2017-10-13 04:47:46,-0.00,0.31,0.00,19.68,23.17,26.35,14.14,46.83,1022.52,2048.58,3377.03,3041.84,3470.00,600.03,606.28,22.05,0000 0000 0000 0000 000000
2017-10-13 04:52:47,-0.01,0.31,0.00,19.66,23.17,26.37,14.16,46.83,1022.58,2048.30,3376.97,3041.14,3469.86,599.48,605.87,22.10,0000 0000 0000 0000 000000
2017-10-13 04:57:49,0.02,0.31,0.00,19.72,23.19,26.38,14.23,46.84,1022.66,2048.21,3376.41,3041.00,3469.15,600.16,606.44,22.15,0000 0000 0000 0000 000000
2017-10-13 05:02:50,-0.00,0.31,0.00,19.69,23.19,26.39,14.20,46.88,1022.80,2048.15,3376.01,3040.98,3469.00,599.81,606.35,22.20,0000 0000 0000 0000 000000
2017-10-13 05:07:51,0.00,0.31,0.00,19.73,23.19,26.39,14.15,46.83,1022.90,2048.12,3375.93,3040.75,3468.96,599.71,606.30,22.25,0000 0000 0000 0000 000000
2017-10-13 05:12:52,0.03,0.32,0.00,19.68,23.22,26.39,14.21,46.95,1022.94,2048.06,3375.17,3040.06,3468.32,599.93,606.43,22.30,0000 0000 0000 0000 000000
2017-10-13 05:17:53,0.00,0.32,0.00,19.70,23.22,26.46,14.14,46.84,1022.96,2048.03,3375.01,3040.00,3468.02,599.77,606.17,22.35,0000 0000 0000 0000 000000
2017-10-13 05:22:55,0.00,0.32,0.00,19.69,23.22,26.47,14.16,46.78,1022.96,2048.01,3374.97,3040.00,3467.98,600.46,606.96,22.40,0000 0000 0000 0000 000000
2017-10-13 05:27:56,0.01,0.32,0.00,19.73,23.24,26.44,14.22,46.77,1022.96,2048.01,3374.55,3039.98,3467.76,599.88,606.27,22.45,0000 0000 0000 0000 000000
2017-10-13 05:32:57,0.03,0.32,0.00,19.73,23.24,26.44,14.15,46.79,1022.96,2048.00,3374.01,3039.43,3467.06,599.92,606.33,22.50,0000 0000 0000 0000 000000
2017-10-13 05:37:58,0.00,0.32,0.00,19.70,23.25,26.45,14.16,46.79,1022.96,2048.00,3373.94,3039.05,3467.00,599.94,606.45,22.55,0000 0000 0000 0000 000000
2017-10-13 05:42:59,0.02,0.32,0.00,19.72,23.27,26.48,14.22,46.93,1022.96,2048.00,3373.19,3038.98,3466.75,600.06,606.46,22.60,0000 0000 0000 0000 000000
2017-10-13 05:48:00,0.02,0.32,0.00,19.66,23.27,26.51,14.21,46.77,1022.96,2047.99,3372.98,3038.59,3466.10,600.12,606.87,22.65,0000 0000 0000 0000 000000
2017-10-13 05:53:02,0.02,0.32,0.00,19.72,23.27,26.49,14.15,46.71,1022.98,2047.99,3372.61,3038.13,3466.00,599.29,605.84,22.70,0000 0000 0000 0000 000000
2017-10-13 05:58:03,0.01,0.32,0.00,19.71,23.28,26.51,14.21,46.81,1023.00,2047.99,3372.02,3037.99,3465.87,599.54,606.12,22.75,0000 0000 0000 0000 000000
2017-10-13 06:03:04,0.02,0.32,0.00,19.76,23.29,26.51,14.21,46.88,1023.15,2047.99,3371.79,3037.84,3465.24,600.01,606.54,22.80,0000 0000 0000 0000 000000
2017-10-13 06:08:05,0.03,0.33,0.00,19.73,23.29,26.52,14.19,46.67,1023.13,2047.98,3371.05,3037.11,3465.00,600.00,606.63,22.85,0000 0000 0000 0000 000000
2017-10-13 06:13:06,0.01,0.33,0.00,19.73,23.30,26.52,14.25,46.94,1023.10,2047.97,3370.74,3037.00,3464.74,599.52,606.08,22.90,0000 0000 0000 0000 000000
2017-10-13 06:18:07,0.01,0.33,0.00,19.74,23.31,26.55,14.16,46.77,1023.13,2047.96,3370.04,3036.97,3464.06,599.90,606.43,22.95,0000 0000 0000 0000 000000
2017-10-13 06:23:09,0.01,0.33,0.00,19.75,23.32,26.54,14.13,46.74,1023.17,2047.98,3370.00,3036.62,3464.00,600.24,606.84,23.00,0000 0000 0000 0000 000000
2017-10-13 06:28:10,0.02,0.33,0.00,19.79,23.32,26.53,14.16,46.77,1023.17,2047.97,3369.72,3036.03,3463.89,599.85,606.30,23.05,0000 0000 0000 0000 000000
2017-10-13 06:33:11,0.01,0.33,0.00,19.73,23.32,26.54,14.23,46.75,1023.17,2047.94,3369.04,3036.00,3463.17,599.93,606.35,23.10,0000 0000 0000 0000 000000
2017-10-13 06:38:12,-0.01,0.33,0.00,19.76,23.32,26.55,14.23,46.89,1023.30,2047.82,3368.92,3035.91,3462.99,600.40,607.01,23.15,0000 0000 0000 0000 000000
2017-10-13 06:43:14,0.03,0.33,0.00,19.73,23.33,26.54,14.24,46.82,1023.37,2047.73,3368.23,3035.30,3462.78,600.16,606.81,23.20,0000 0000 0000 0000 000000
2017-10-13 06:48:15,-0.00,0.33,0.00,19.75,23.34,26.56,14.29,46.72,1023.44,2047.53,3367.99,3035.01,3462.10,600.39,607.15,23.25,0000 0000 0000 0000 000000
2017-10-13 06:53:16,0.02,0.33,0.00,19.78,23.34,26.56,14.20,46.59,1023.44,2047.63,3367.69,3035.00,3462.00,600.19,606.98,23.30,0000 0000 0000 0000 000000
2017-10-13 06:58:18,0.01,0.33,0.00,19.73,23.34,26.57,14.23,46.63,1023.45,2047.45,3367.03,3034.74,3461.92,600.07,606.82,23.35,0000 0000 0000 0000 000000
2017-10-13 07:03:19,0.00,0.33,0.00,19.75,23.34,26.59,14.25,46.62,1023.45,2047.28,3366.93,3034.10,3461.18,600.41,607.12,23.40,0000 0000 0000 0000 000000
2017-10-13 07:08:20,0.03,0.33,0.00,19.71,23.35,26.57,14.21,46.75,1023.45,2047.43,3366.27,3034.00,3461.00,599.81,606.51,23.45,0000 0000 0000 0000 000000
2017-10-13 07:13:21,0.01,0.34,0.00,19.76,23.35,26.60,14.27,46.73,1023.45,2047.57,3365.97,3033.97,3460.95,600.22,606.88,23.50,0000 0000 0000 0000 000000
2017-10-13 07:18:22,0.02,0.34,0.00,19.77,23.37,26.57,14.18,46.75,1023.45,2047.43,3365.23,3033.35,3460.25,599.70,606.49,23.55,0000 0000 0000 0000 000000
2017-10-13 07:23:23,0.01,0.34,0.00,19.77,23.37,26.59,14.21,46.73,1023.45,2047.36,3364.97,3033.00,3460.00,600.10,606.63,23.60,0000 0000 0000 0000 000000
2017-10-13 07:28:24,0.00,0.34,0.00,19.80,23.37,26.63,14.20,46.72,1023.45,2047.17,3364.35,3032.93,3459.55,600.49,607.00,23.65,0000 0000 0000 0000 000000
2017-10-13 07:33:25,0.02,0.34,0.00,19.75,23.37,26.59,14.17,46.77,1023.46,2047.15,3363.99,3032.30,3459.01,599.79,606.59,23.70,0000 0000 0000 0000 000000
2017-10-13 07:38:27,0.02,0.34,0.00,19.78,23.37,26.61,14.17,46.83,1023.47,2047.11,3363.27,3032.00,3458.96,600.19,606.82,23.75,0000 0000 0000 0000 000000
2017-10-13 07:43:28,0.01,0.34,0.00,19.75,23.37,26.62,14.28,46.81,1023.48,2047.10,3363.00,3032.00,3458.24,600.58,607.33,23.80,0000 0000 0000 0000 000000
2017-10-13 07:48:29,0.01,0.34,0.00,19.78,23.37,26.64,14.26,46.77,1023.54,2047.22,3362.84,3031.81,3458.01,600.20,606.89,23.85,0000 0000 0000 0000 000000
2017-10-13 07:53:30,0.02,0.34,0.00,19.78,23.37,26.60,14.20,46.75,1023.56,2047.06,3362.11,3031.15,3457.93,599.89,606.48,23.90,0000 0000 0000 0000 000000
2017-10-13 07:58:32,0.01,0.34,0.00,19.75,23.38,26.62,14.16,46.74,1023.64,2047.05,3361.91,3031.00,3457.31,599.92,606.74,23.95,0000 0000 0000 0000 000000
2017-10-13 08:03:33,0.02,0.34,0.00,19.78,23.39,26.62,14.18,46.73,1023.76,2047.08,3361.14,3030.86,3457.01,599.88,606.70,24.00,0000 0000 0000 0000 000000
2017-10-13 08:08:34,0.02,0.34,0.00,19.74,23.39,26.60,14.21,46.61,1023.86,2047.04,3360.92,3030.13,3456.81,600.01,606.95,24.05,0000 0000 0000 0000 000000
2017-10-13 08:13:35,0.02,0.35,0.00,19.78,23.39,26.63,14.20,46.67,1023.88,2047.03,3360.14,3030.00,3456.09,599.65,606.53,24.10,0000 0000 0000 0000 000000
2017-10-13 08:18:37,0.00,0.35,0.00,19.79,23.39,26.64,14.21,46.73,1023.91,2047.04,3359.95,3029.92,3456.00,599.73,606.68,24.15,0000 0000 0000 0000 000000
2017-10-13 08:23:38,0.04,0.35,0.00,19.76,23.39,26.62,14.26,46.58,1023.91,2047.04,3359.21,3029.24,3455.77,600.35,607.40,24.20,0000 0000 0000 0000 000000
2017-10-13 08:28:39,0.01,0.35,0.00,19.80,23.39,26.63,14.22,46.78,1023.93,2047.01,3358.96,3029.01,3455.05,599.87,606.68,24.25,0000 0000 0000 0000 000000
2017-10-13 08:33:40,0.01,0.35,0.00,19.74,23.39,26.63,14.17,46.61,1023.93,2047.02,3358.21,3028.97,3454.99,599.64,606.70,24.30,0000 0000 0000 0000 000000
2017-10-13 08:38:41,0.03,0.35,0.00,19.75,23.39,26.65,14.25,46.72,1023.94,2047.02,3357.98,3028.32,3454.49,600.43,607.47,24.35,0000 0000 0000 0000 000000
2017-10-13 08:43:43,0.01,0.35,0.00,19.75,23.39,26.64,14.17,46.70,1023.94,2047.01,3357.31,3028.00,3454.02,599.51,606.58,24.40,0000 0000 0000 0000 000000
2017-10-13 08:48:44,0.00,0.35,0.00,19.76,23.39,26.61,14.29,46.68,1023.94,2047.01,3357.00,3027.98,3453.93,600.51,607.40,24.45,0000 0000 0000 0000 000000
2017-10-13 08:53:45,0.04,0.35,0.00,19.79,23.39,26.60,14.24,46.74,1023.94,2047.01,3356.38,3027.42,3453.21,600.21,607.07,24.50,0000 0000 0000 0000 000000
2017-10-13 08:58:47,0.00,0.36,0.00,19.73,23.39,26.63,14.17,46.95,1023.94,2047.02,3356.00,3027.01,3453.00,599.29,606.33,24.55,0000 0000 0000 0000 000000
2017-10-13 09:03:48,0.01,0.36,0.00,19.77,23.39,26.67,14.17,46.84,1023.94,2047.02,3355.55,3026.99,3452.95,600.13,607.08,24.60,0000 0000 0000 0000 000000
2017-10-13 09:08:49,0.03,0.36,0.00,19.73,23.39,26.67,14.20,46.78,1023.94,2047.04,3355.02,3026.74,3452.32,599.86,606.84,24.65,0000 0000 0000 0000 000000
2017-10-13 09:13:50,0.02,0.36,0.00,19.75,23.39,26.63,14.28,46.88,1023.95,2047.02,3354.50,3026.05,3452.00,600.07,607.18,24.70,0000 0000 0000 0000 000000
2017-10-13 09:18:51,0.01,0.36,0.00,19.74,23.39,26.65,14.23,46.78,1023.97,2047.01,3354.00,3025.99,3451.60,599.95,606.93,24.75,0000 0000 0000 0000 000000
2017-10-13 09:23:52,0.02,0.36,0.00,19.71,23.39,26.64,14.22,46.80,1024.01,2047.02,3353.47,3025.71,3451.03,599.78,606.88,24.81,0000 0000 0000 0000 000000
2017-10-13 09:28:53,0.02,0.36,0.00,19.74,23.39,26.63,14.23,46.70,1024.02,2047.03,3353.01,3025.07,3450.97,600.02,607.08,24.86,0000 0000 0000 0000 000000
2017-10-13 09:33:54,0.02,0.36,0.00,19.70,23.39,26.64,14.18,46.80,1024.01,2047.02,3352.53,3024.99,3450.26,599.54,606.74,24.91,0000 0000 0000 0000 000000
2017-10-13 09:38:56,0.01,0.36,0.00,19.76,23.39,26.64,14.25,46.83,1024.10,2047.02,3352.01,3024.69,3449.99,600.45,607.52,24.96,0000 0000 0000 0000 000000
2017-10-13 09:43:57,0.03,0.37,0.00,19.71,23.39,26.63,14.28,46.85,1024.27,2047.02,3351.55,3024.06,3449.74,600.20,607.52,25.01,0000 0000 0000 0000 000000
2017-10-13 09:48:59,0.01,0.37,0.00,19.74,23.39,26.66,14.20,46.78,1024.28,2047.01,3351.01,3023.99,3449.08,599.56,606.83,25.06,0000 0000 0000 0000 000000
2017-10-13 09:54:00,0.02,0.37,0.00,19.72,23.39,26.61,14.19,46.72,1024.33,2047.01,3350.37,3023.71,3448.95,599.84,607.18,25.11,0000 0000 0000 0000 000000
2017-10-13 09:59:01,0.02,0.37,0.00,19.68,23.39,26.64,14.23,46.71,1024.39,2047.00,3349.99,3023.07,3448.24,600.26,607.74,25.16,0000 0000 0000 0000 000000
2017-10-13 10:04:03,0.01,0.37,0.00,19.73,23.39,26.64,14.27,46.70,1024.41,2047.00,3349.34,3023.00,3448.00,600.39,607.75,25.21,0000 0000 0000 0000 000000
2017-10-13 10:09:04,0.03,0.37,0.00,19.71,23.39,26.64,14.18,46.75,1024.43,2047.00,3348.98,3022.53,3447.70,599.74,607.12,25.26,0000 0000 0000 0000 000000
2017-10-13 10:14:05,0.03,0.37,0.00,19.76,23.39,26.62,14.15,46.69,1024.43,2047.01,3348.19,3022.01,3447.03,599.48,606.73,25.31,0000 0000 0000 0000 000000
2017-10-13 10:19:07,0.02,0.37,0.00,19.71,23.39,26.60,14.29,46.67,1024.43,2047.00,3347.74,3021.85,3446.69,600.38,607.61,25.36,0000 0000 0000 0000 000000
2017-10-13 10:24:08,0.03,0.38,0.00,19.69,23.39,26.63,14.26,46.64,1024.43,2047.00,3347.04,3021.10,3446.02,600.18,607.75,25.41,0000 0000 0000 0000 000000
2017-10-13 10:29:09,0.01,0.38,0.00,19.72,23.39,26.63,14.26,46.73,1024.44,2047.00,3346.60,3021.00,3445.92,600.61,608.02,25.46,0000 0000 0000 0000 000000
2017-10-13 10:34:10,0.02,0.38,0.00,19.69,23.39,26.62,14.27,46.77,1024.44,2047.00,3346.02,3020.85,3445.27,600.32,607.73,25.51,0000 0000 0000 0000 000000
2017-10-13 10:39:11,0.03,0.38,0.00,19.73,23.39,26.63,14.26,46.63,1024.44,2047.00,3345.65,3020.13,3445.00,600.05,607.23,25.56,0000 0000 0000 0000 000000
2017-10-13 10:44:12,0.01,0.38,0.00,19.67,23.38,26.62,14.19,46.73,1024.45,2047.00,3345.03,3020.00,3444.75,599.78,607.23,25.61,0000 0000 0000 0000 000000
2017-10-13 10:49:13,0.02,0.38,0.00,19.69,23.38,26.63,14.26,46.80,1024.45,2047.00,3344.66,3019.83,3444.06,599.94,607.40,25.66,0000 0000 0000 0000 000000
2017-10-13 10:54:15,0.02,0.38,0.00,19.68,23.38,26.64,14.25,46.88,1024.44,2047.00,3344.02,3019.15,3443.98,599.78,607.36,25.71,0000 0000 0000 0000 000000
2017-10-13 10:59:16,0.02,0.38,0.00,19.67,23.37,26.62,14.22,46.70,1024.45,2047.00,3343.56,3018.99,3443.33,600.08,607.35,25.76,0000 0000 0000 0000 000000
2017-10-13 11:04:18,0.01,0.38,0.00,19.70,23.37,26.61,14.22,46.67,1024.46,2047.00,3343.01,3018.79,3443.00,599.80,607.15,25.81,0000 0000 0000 0000 000000
2017-10-13 11:09:19,0.04,0.39,0.00,19.65,23.37,26.61,14.20,46.88,1024.45,2047.00,3342.45,3018.09,3442.72,599.87,607.39,25.86,0000 0000 0000 0000 000000
2017-10-13 11:14:20,0.01,0.39,0.00,19.69,23.37,26.62,14.28,46.78,1024.45,2047.01,3342.01,3017.99,3442.06,600.18,607.56,25.91,0000 0000 0000 0000 000000
2017-10-13 11:19:21,0.02,0.39,0.00,19.64,23.37,26.63,14.27,46.85,1024.46,2047.01,3341.59,3017.82,3442.00,599.84,607.15,25.96,0000 0000 0000 0000 000000
2017-10-13 11:24:22,0.03,0.39,0.00,19.69,23.37,26.60,14.18,46.74,1024.50,2047.01,3340.98,3017.10,3441.33,599.86,607.32,26.01,0000 0000 0000 0000 000000
2017-10-13 11:29:23,0.01,0.39,0.00,19.64,23.37,26.59,14.17,46.91,1024.50,2047.00,3340.25,3016.99,3441.00,599.92,607.44,26.06,0000 0000 0000 0000 000000
2017-10-13 11:34:24,0.03,0.39,0.00,19.65,23.37,26.61,14.29,46.94,1024.53,2047.00,3339.91,3016.45,3440.54,600.41,607.94,26.11,0000 0000 0000 0000 000000
2017-10-13 11:39:25,0.02,0.39,0.00,19.66,23.37,26.60,14.15,46.80,1024.57,2047.00,3339.14,3016.01,3440.02,600.07,607.53,26.16,0000 0000 0000 0000 000000
2017-10-13 11:44:27,0.00,0.39,0.00,19.63,23.37,26.60,14.26,46.78,1024.64,2047.01,3338.87,3015.99,3439.97,600.37,607.95,26.21,0000 0000 0000 0000 000000
2017-10-13 11:49:28,0.05,0.40,0.00,19.66,23.37,26.59,14.20,46.77,1024.64,2047.00,3338.07,3015.45,3439.27,599.96,607.44,26.26,0000 0000 0000 0000 000000
2017-10-13 11:54:29,0.01,0.40,0.00,19.64,23.37,26.59,14.26,46.79,1024.67,2047.01,3337.85,3015.02,3439.00,600.16,607.71,26.31,0000 0000 0000 0000 000000
2017-10-13 11:59:31,0.01,0.40,0.00,19.67,23.36,26.57,14.26,46.91,1024.64,2047.00,3337.08,3014.98,3438.82,599.53,607.19,26.36,0000 0000 0000 0000 000000
2017-10-13 12:04:32,0.03,0.40,0.00,19.62,23.35,26.55,14.24,46.77,1024.62,2047.01,3336.93,3014.54,3438.10,600.00,607.67,26.41,0000 0000 0000 0000 000000
2017-10-13 12:09:33,0.02,0.40,0.00,19.65,23.35,26.58,14.23,46.77,1024.69,2047.02,3336.13,3014.04,3437.99,600.26,607.95,26.46,0000 0000 0000 0000 000000
2017-10-13 12:14:34,0.01,0.40,0.00,19.68,23.35,26.57,14.31,46.90,1024.70,2047.03,3335.96,3014.00,3437.60,600.14,607.69,26.51,0000 0000 0000 0000 000000
2017-10-13 12:19:36,0.03,0.40,0.00,19.68,23.35,26.54,14.23,46.69,1024.69,2047.03,3335.20,3013.75,3437.05,600.15,607.65,26.56,0000 0000 0000 0000 000000
2017-10-13 12:24:37,0.01,0.40,0.00,19.70,23.35,26.56,14.21,46.77,1024.77,2047.03,3334.94,3013.07,3436.98,600.16,607.84,26.61,0000 0000 0000 0000 000000
2017-10-13 12:29:38,0.03,0.41,0.00,19.63,23.35,26.59,14.31,46.93,1024.79,2047.04,3334.15,3012.96,3436.31,600.12,607.75,26.66,0000 0000 0000 0000 000000
2017-10-13 12:34:39,0.03,0.41,0.00,19.66,23.34,26.58,14.17,46.80,1024.88,2047.02,3333.72,3012.39,3435.99,599.77,607.54,26.71,0000 0000 0000 0000 000000
2017-10-13 12:39:40,0.02,0.41,0.00,19.68,23.34,26.56,14.26,46.79,1024.90,2047.03,3333.02,3012.03,3435.60,600.18,607.92,26.76,0000 0000 0000 0000 000000
2017-10-13 12:44:42,0.01,0.41,0.00,19.67,23.33,26.55,14.23,46.73,1024.92,2047.05,3332.58,3011.98,3435.02,599.89,607.64,26.81,0000 0000 0000 0000 000000
2017-10-13 12:49:43,0.02,0.41,0.00,19.70,23.32,26.54,14.20,46.63,1024.92,2047.05,3332.01,3011.44,3434.93,599.98,607.68,26.86,0000 0000 0000 0000 000000
2017-10-13 12:54:45,0.02,0.41,0.00,19.63,23.32,26.57,14.25,46.84,1024.92,2047.06,3331.66,3011.02,3434.22,599.90,607.68,26.91,0000 0000 0000 0000 000000